����������;��������(kWh)
2017-05-15 00:00;96,5
2017-05-15 00:15;97,2
2017-05-15 00:30;94,2
2017-05-15 00:45;100,45
2017-05-15 01:00;99,9
2017-05-15 01:15;100,65
2017-05-15 01:30;91,8
2017-05-15 01:45;94,85
2017-05-15 02:00;95,45
2017-05-15 02:15;92,2
2017-05-15 02:30;91,4
2017-05-15 02:45;96,15
2017-05-15 03:00;91,9
2017-05-15 03:15;92,8
2017-05-15 03:30;96,35
2017-05-15 03:45;94,65
2017-05-15 04:00;92,95
2017-05-15 04:15;94,9
2017-05-15 04:30;95,6
2017-05-15 04:45;92,6
2017-05-15 05:00;93
2017-05-15 05:15;99,7
2017-05-15 05:30;99,65
2017-05-15 05:45;103,55
2017-05-15 06:00;106,05
2017-05-15 06:15;102,3
2017-05-15 06:30;99,1
2017-05-15 06:45;99,15
2017-05-15 07:00;99,15
2017-05-15 07:15;97,7
2017-05-15 07:30;99,75
2017-05-15 07:45;103,3
2017-05-15 08:00;103,4
2017-05-15 08:15;105,65
2017-05-15 08:30;109,05
2017-05-15 08:45;129,1
2017-05-15 09:00;149,5
2017-05-15 09:15;208,35
2017-05-15 09:30;211,75
2017-05-15 09:45;183,5
2017-05-15 10:00;185,6
2017-05-15 10:15;200,85
2017-05-15 10:30;207,5
2017-05-15 10:45;215,15
2017-05-15 11:00;220,85
2017-05-15 11:15;218,7
2017-05-15 11:30;222,95
2017-05-15 11:45;212,4
2017-05-15 12:00;213,6
2017-05-15 12:15;220,4
2017-05-15 12:30;215,5
2017-05-15 12:45;220,25
2017-05-15 13:00;220,6
2017-05-15 13:15;228,9
2017-05-15 13:30;232,45
2017-05-15 13:45;237,7
2017-05-15 14:00;233,7
2017-05-15 14:15;231,7
2017-05-15 14:30;226,95
2017-05-15 14:45;226,45
2017-05-15 15:00;223,35
2017-05-15 15:15;215,75
2017-05-15 15:30;217,2
2017-05-15 15:45;209,85
2017-05-15 16:00;204,45
2017-05-15 16:15;194,7
2017-05-15 16:30;197,2
2017-05-15 16:45;200,3
2017-05-15 17:00;180,95
2017-05-15 17:15;184,65
2017-05-15 17:30;178,15
2017-05-15 17:45;173,15
2017-05-15 18:00;160,35
2017-05-15 18:15;157,5
2017-05-15 18:30;157,25
2017-05-15 18:45;151
2017-05-15 19:00;141,7
2017-05-15 19:15;133,05
2017-05-15 19:30;130,7
2017-05-15 19:45;132
2017-05-15 20:00;129,15
2017-05-15 20:15;118,05
2017-05-15 20:30;121,75
2017-05-15 20:45;125,9
2017-05-15 21:00;125,8
2017-05-15 21:15;117,15
2017-05-15 21:30;117,05
2017-05-15 21:45;109,8
2017-05-15 22:00;104,6
2017-05-15 22:15;101,5
2017-05-15 22:30;105,8
2017-05-15 22:45;101,3
2017-05-15 23:00;101,15
2017-05-15 23:15;100,55
2017-05-15 23:30;99,65
2017-05-15 23:45;97,15
2017-05-16 00:00;94,6
2017-05-16 00:15;90,8
2017-05-16 00:30;92,25
2017-05-16 00:45;97,3
2017-05-16 01:00;93,65
2017-05-16 01:15;90,1
2017-05-16 01:30;92,15
2017-05-16 01:45;94,3
2017-05-16 02:00;91,2
2017-05-16 02:15;86,65
2017-05-16 02:30;88,9
2017-05-16 02:45;92,7
2017-05-16 03:00;90,25
2017-05-16 03:15;90,7
2017-05-16 03:30;89,35
2017-05-16 03:45;87,8
2017-05-16 04:00;90,1
2017-05-16 04:15;87,95
2017-05-16 04:30;88,85
2017-05-16 04:45;88,6
2017-05-16 05:00;88,8
2017-05-16 05:15;88,25
2017-05-16 05:30;94,4
2017-05-16 05:45;100,85
2017-05-16 06:00;99,6
2017-05-16 06:15;98,35
2017-05-16 06:30;102
2017-05-16 06:45;96,95
2017-05-16 07:00;91,5
2017-05-16 07:15;95,7
2017-05-16 07:30;124,25
2017-05-16 07:45;114,95
2017-05-16 08:00;100,1
2017-05-16 08:15;104,05
2017-05-16 08:30;110,55
2017-05-16 08:45;144,45
2017-05-16 09:00;151,6
2017-05-16 09:15;143,8
2017-05-16 09:30;158,35
2017-05-16 09:45;159,2
2017-05-16 10:00;158,75
2017-05-16 10:15;172,5
2017-05-16 10:30;176,55
2017-05-16 10:45;190,2
2017-05-16 11:00;198,1
2017-05-16 11:15;182,05
2017-05-16 11:30;186,35
2017-05-16 11:45;200,85
2017-05-16 12:00;191,65
2017-05-16 12:15;190,95
2017-05-16 12:30;192,95
2017-05-16 12:45;191,25
2017-05-16 13:00;196,95
2017-05-16 13:15;202,5
2017-05-16 13:30;197,65
2017-05-16 13:45;198,8
2017-05-16 14:00;204,85
2017-05-16 14:15;202,15
2017-05-16 14:30;183,6
2017-05-16 14:45;202,65
2017-05-16 15:00;183,4
2017-05-16 15:15;173,4
2017-05-16 15:30;174,15
2017-05-16 15:45;172,75
2017-05-16 16:00;166,45
2017-05-16 16:15;153,05
2017-05-16 16:30;152
2017-05-16 16:45;151,7
2017-05-16 17:00;143,95
2017-05-16 17:15;145,55
2017-05-16 17:30;151,5
2017-05-16 17:45;153,5
2017-05-16 18:00;142,2
2017-05-16 18:15;146,4
2017-05-16 18:30;139,4
2017-05-16 18:45;138,45
2017-05-16 19:00;138,65
2017-05-16 19:15;129,5
2017-05-16 19:30;128,55
2017-05-16 19:45;124,7
2017-05-16 20:00;121,6
2017-05-16 20:15;116,15
2017-05-16 20:30;117,55
2017-05-16 20:45;118,8
2017-05-16 21:00;112,95
2017-05-16 21:15;109,1
2017-05-16 21:30;104,25
2017-05-16 21:45;102,9
2017-05-16 22:00;100,85
2017-05-16 22:15;97,1
2017-05-16 22:30;97,95
2017-05-16 22:45;95,3
2017-05-16 23:00;91,4
2017-05-16 23:15;96,15
2017-05-16 23:30;87,95
2017-05-16 23:45;86,15
2017-05-17 00:00;86,7
2017-05-17 00:15;85,2
2017-05-17 00:30;83,9
2017-05-17 00:45;84,25
2017-05-17 01:00;81,65
2017-05-17 01:15;81,15
2017-05-17 01:30;82,8
2017-05-17 01:45;81,9
2017-05-17 02:00;82,5
2017-05-17 02:15;80,75
2017-05-17 02:30;79,2
2017-05-17 02:45;80,6
2017-05-17 03:00;80
2017-05-17 03:15;80,95
2017-05-17 03:30;81,85
2017-05-17 03:45;81,4
2017-05-17 04:00;80,7
2017-05-17 04:15;81,5
2017-05-17 04:30;80,1
2017-05-17 04:45;79,45
2017-05-17 05:00;85,15
2017-05-17 05:15;84,4
2017-05-17 05:30;96,3
2017-05-17 05:45;94,05
2017-05-17 06:00;93,3
2017-05-17 06:15;90,85
2017-05-17 06:30;95,1
2017-05-17 06:45;87,95
2017-05-17 07:00;86,2
2017-05-17 07:15;93,25
2017-05-17 07:30;95,7
2017-05-17 07:45;100,45
2017-05-17 08:00;96
2017-05-17 08:15;92,3
2017-05-17 08:30;105,05
2017-05-17 08:45;114,45
2017-05-17 09:00;120,45
2017-05-17 09:15;134,5
2017-05-17 09:30;137,5
2017-05-17 09:45;134,3
2017-05-17 10:00;135,45
2017-05-17 10:15;144,6
2017-05-17 10:30;150,05
2017-05-17 10:45;154,6
2017-05-17 11:00;162,1
2017-05-17 11:15;149,8
2017-05-17 11:30;154,9
2017-05-17 11:45;164,8
2017-05-17 12:00;170,85
2017-05-17 12:15;164,7
2017-05-17 12:30;162,55
2017-05-17 12:45;157,55
2017-05-17 13:00;157,85
2017-05-17 13:15;162,45
2017-05-17 13:30;167,95
2017-05-17 13:45;159,8
2017-05-17 14:00;155,1
2017-05-17 14:15;155,4
2017-05-17 14:30;152,95
2017-05-17 14:45;155,3
2017-05-17 15:00;151,55
2017-05-17 15:15;148,8
2017-05-17 15:30;144,1
2017-05-17 15:45;143,9
2017-05-17 16:00;142,7
2017-05-17 16:15;140,7
2017-05-17 16:30;138,9
2017-05-17 16:45;139,85
2017-05-17 17:00;132,4
2017-05-17 17:15;136,6
2017-05-17 17:30;136,65
2017-05-17 17:45;132,25
2017-05-17 18:00;130,7
2017-05-17 18:15;132,7
2017-05-17 18:30;128,1
2017-05-17 18:45;130,05
2017-05-17 19:00;122,7
2017-05-17 19:15;118,2
2017-05-17 19:30;114,8
2017-05-17 19:45;114,85
2017-05-17 20:00;112,75
2017-05-17 20:15;102,85
2017-05-17 20:30;108,85
2017-05-17 20:45;108,8
2017-05-17 21:00;101
2017-05-17 21:15;97,1
2017-05-17 21:30;97,05
2017-05-17 21:45;95,9
2017-05-17 22:00;90
2017-05-17 22:15;88,65
2017-05-17 22:30;88,2
2017-05-17 22:45;86,8
2017-05-17 23:00;87,2
2017-05-17 23:15;85,95
2017-05-17 23:30;87,15
2017-05-17 23:45;83,75
2017-05-18 00:00;84,5
2017-05-18 00:15;85,3
2017-05-18 00:30;81,6
2017-05-18 00:45;84,4
2017-05-18 01:00;84,85
2017-05-18 01:15;84,8
2017-05-18 01:30;83,75
2017-05-18 01:45;86,25
2017-05-18 02:00;84,2
2017-05-18 02:15;84
2017-05-18 02:30;85,9
2017-05-18 02:45;82,4
2017-05-18 03:00;82,5
2017-05-18 03:15;83,45
2017-05-18 03:30;83,95
2017-05-18 03:45;82,7
2017-05-18 04:00;82,95
2017-05-18 04:15;84,35
2017-05-18 04:30;82,6
2017-05-18 04:45;86,9
2017-05-18 05:00;87,1
2017-05-18 05:15;93,8
2017-05-18 05:30;93
2017-05-18 05:45;93,05
2017-05-18 06:00;91,4
2017-05-18 06:15;87,25
2017-05-18 06:30;95,7
2017-05-18 06:45;87,35
2017-05-18 07:00;82,15
2017-05-18 07:15;84,05
2017-05-18 07:30;88,3
2017-05-18 07:45;97,6
2017-05-18 08:00;97,35
2017-05-18 08:15;90,75
2017-05-18 08:30;97,15
2017-05-18 08:45;108,5
2017-05-18 09:00;121
2017-05-18 09:15;127,35
2017-05-18 09:30;130,15
2017-05-18 09:45;129,7
2017-05-18 10:00;132,3
2017-05-18 10:15;139,3
2017-05-18 10:30;142,3
2017-05-18 10:45;145,4
2017-05-18 11:00;159,15
2017-05-18 11:15;148,8
2017-05-18 11:30;159,15
2017-05-18 11:45;159,2
2017-05-18 12:00;157,8
2017-05-18 12:15;161,3
2017-05-18 12:30;156,3
2017-05-18 12:45;159,2
2017-05-18 13:00;163,8
2017-05-18 13:15;167,45
2017-05-18 13:30;168,8
2017-05-18 13:45;166,35
2017-05-18 14:00;165,1
2017-05-18 14:15;164,95
2017-05-18 14:30;164,8
2017-05-18 14:45;159,2
2017-05-18 15:00;161,25
2017-05-18 15:15;158,25
2017-05-18 15:30;151
2017-05-18 15:45;145,45
2017-05-18 16:00;144,25
2017-05-18 16:15;142,35
2017-05-18 16:30;143,2
2017-05-18 16:45;143,45
2017-05-18 17:00;134,9
2017-05-18 17:15;126,45
2017-05-18 17:30;131,8
2017-05-18 17:45;127,2
2017-05-18 18:00;121,5
2017-05-18 18:15;120,85
2017-05-18 18:30;116,5
2017-05-18 18:45;117,6
2017-05-18 19:00;116,55
2017-05-18 19:15;109,75
2017-05-18 19:30;112,45
2017-05-18 19:45;110,75
2017-05-18 20:00;113,7
2017-05-18 20:15;112,4
2017-05-18 20:30;109,95
2017-05-18 20:45;111,6
2017-05-18 21:00;112,15
2017-05-18 21:15;107,55
2017-05-18 21:30;104,8
2017-05-18 21:45;102,2
2017-05-18 22:00;98,35
2017-05-18 22:15;90,85
2017-05-18 22:30;91,15
2017-05-18 22:45;91,4
2017-05-18 23:00;89,25
2017-05-18 23:15;87
2017-05-18 23:30;88,15
2017-05-18 23:45;86,7
2017-05-19 00:00;87,7
2017-05-19 00:15;89,5
2017-05-19 00:30;88,65
2017-05-19 00:45;87
2017-05-19 01:00;85,75
2017-05-19 01:15;83,65
2017-05-19 01:30;83,2
2017-05-19 01:45;83,5
2017-05-19 02:00;84,1
2017-05-19 02:15;82,75
2017-05-19 02:30;82,2
2017-05-19 02:45;82,15
2017-05-19 03:00;83,75
2017-05-19 03:15;83,75
2017-05-19 03:30;83,1
2017-05-19 03:45;84,5
2017-05-19 04:00;83,2
2017-05-19 04:15;83,45
2017-05-19 04:30;82,55
2017-05-19 04:45;86,7
2017-05-19 05:00;87,35
2017-05-19 05:15;93,15
2017-05-19 05:30;94,75
2017-05-19 05:45;90,8
2017-05-19 06:00;89,05
2017-05-19 06:15;89,3
2017-05-19 06:30;89,1
2017-05-19 06:45;96
2017-05-19 07:00;85
2017-05-19 07:15;84
2017-05-19 07:30;87,75
2017-05-19 07:45;91,75
2017-05-19 08:00;96,4
2017-05-19 08:15;100,3
2017-05-19 08:30;101,75
2017-05-19 08:45;106,8
2017-05-19 09:00;113,7
2017-05-19 09:15;119,5
2017-05-19 09:30;127,35
2017-05-19 09:45;128,7
2017-05-19 10:00;129,45
2017-05-19 10:15;136,05
2017-05-19 10:30;145,45
2017-05-19 10:45;147,25
2017-05-19 11:00;151,2
2017-05-19 11:15;144,9
2017-05-19 11:30;152,85
2017-05-19 11:45;151,4
2017-05-19 12:00;144,5
2017-05-19 12:15;146,4
2017-05-19 12:30;153,75
2017-05-19 12:45;154
2017-05-19 13:00;148,2
2017-05-19 13:15;157,35
2017-05-19 13:30;159,35
2017-05-19 13:45;151,4
2017-05-19 14:00;153,8
2017-05-19 14:15;152,45
2017-05-19 14:30;151,1
2017-05-19 14:45;150,25
2017-05-19 15:00;150,55
2017-05-19 15:15;150,55
2017-05-19 15:30;140,85
2017-05-19 15:45;135,65
2017-05-19 16:00;136,6
2017-05-19 16:15;128,65
2017-05-19 16:30;126,45
2017-05-19 16:45;125,05
2017-05-19 17:00;125,9
2017-05-19 17:15;121,35
2017-05-19 17:30;118,55
2017-05-19 17:45;118,15
2017-05-19 18:00;121,7
2017-05-19 18:15;117,1
2017-05-19 18:30;114,65
2017-05-19 18:45;114,35
2017-05-19 19:00;118,85
2017-05-19 19:15;109,85
2017-05-19 19:30;100,9
2017-05-19 19:45;97,75
2017-05-19 20:00;99,55
2017-05-19 20:15;93,55
2017-05-19 20:30;100,95
2017-05-19 20:45;102,2
2017-05-19 21:00;101,75
2017-05-19 21:15;97,3
2017-05-19 21:30;98,95
2017-05-19 21:45;99,2
2017-05-19 22:00;88,9
2017-05-19 22:15;88,5
2017-05-19 22:30;87,85
2017-05-19 22:45;87,4
2017-05-19 23:00;91,65
2017-05-19 23:15;87,25
2017-05-19 23:30;82,4
2017-05-19 23:45;83,55
2017-05-20 00:00;80,4
2017-05-20 00:15;82,85
2017-05-20 00:30;83,65
2017-05-20 00:45;81,45
2017-05-20 01:00;86,5
2017-05-20 01:15;83,25
2017-05-20 01:30;80,4
2017-05-20 01:45;79,5
2017-05-20 02:00;80,7
2017-05-20 02:15;79,2
2017-05-20 02:30;79,75
2017-05-20 02:45;80,75
2017-05-20 03:00;78,9
2017-05-20 03:15;81,05
2017-05-20 03:30;80,05
2017-05-20 03:45;79,1
2017-05-20 04:00;81,4
2017-05-20 04:15;79,5
2017-05-20 04:30;78,85
2017-05-20 04:45;80,55
2017-05-20 05:00;83,4
2017-05-20 05:15;83,7
2017-05-20 05:30;89,25
2017-05-20 05:45;87,8
2017-05-20 06:00;89,2
2017-05-20 06:15;83,8
2017-05-20 06:30;78,3
2017-05-20 06:45;77,05
2017-05-20 07:00;73,4
2017-05-20 07:15;76,2
2017-05-20 07:30;76,65
2017-05-20 07:45;70,2
2017-05-20 08:00;73,05
2017-05-20 08:15;76,95
2017-05-20 08:30;77,1
2017-05-20 08:45;75,85
2017-05-20 09:00;73,95
2017-05-20 09:15;68,95
2017-05-20 09:30;69,35
2017-05-20 09:45;74,15
2017-05-20 10:00;74
2017-05-20 10:15;75,65
2017-05-20 10:30;80,75
2017-05-20 10:45;82,55
2017-05-20 11:00;90,1
2017-05-20 11:15;80,9
2017-05-20 11:30;81,8
2017-05-20 11:45;78,95
2017-05-20 12:00;78,6
2017-05-20 12:15;81,8
2017-05-20 12:30;80,2
2017-05-20 12:45;79,5
2017-05-20 13:00;79,4
2017-05-20 13:15;81,1
2017-05-20 13:30;77,25
2017-05-20 13:45;79,3
2017-05-20 14:00;83,65
2017-05-20 14:15;82,95
2017-05-20 14:30;82,9
2017-05-20 14:45;81,25
2017-05-20 15:00;79,8
2017-05-20 15:15;79,3
2017-05-20 15:30;80,5
2017-05-20 15:45;79,35
2017-05-20 16:00;83,55
2017-05-20 16:15;82,25
2017-05-20 16:30;80,85
2017-05-20 16:45;80,5
2017-05-20 17:00;79,75
2017-05-20 17:15;81,95
2017-05-20 17:30;83,15
2017-05-20 17:45;88,3
2017-05-20 18:00;79,6
2017-05-20 18:15;79,05
2017-05-20 18:30;80,4
2017-05-20 18:45;78,65
2017-05-20 19:00;80,65
2017-05-20 19:15;85,4
2017-05-20 19:30;81,9
2017-05-20 19:45;81,9
2017-05-20 20:00;84,6
2017-05-20 20:15;83,3
2017-05-20 20:30;87,25
2017-05-20 20:45;91,9
2017-05-20 21:00;90,55
2017-05-20 21:15;90,45
2017-05-20 21:30;91,15
2017-05-20 21:45;89,85
2017-05-20 22:00;83,75
2017-05-20 22:15;86,25
2017-05-20 22:30;83,55
2017-05-20 22:45;83,2
2017-05-20 23:00;86,1
2017-05-20 23:15;82,85
2017-05-20 23:30;81,2
2017-05-20 23:45;83,35
2017-05-21 00:00;82,7
2017-05-21 00:15;81,95
2017-05-21 00:30;84,35
2017-05-21 00:45;82
2017-05-21 01:00;82,5
2017-05-21 01:15;82,1
2017-05-21 01:30;80,9
2017-05-21 01:45;81,25
2017-05-21 02:00;82,45
2017-05-21 02:15;81,35
2017-05-21 02:30;79,55
2017-05-21 02:45;81,15
2017-05-21 03:00;81,7
2017-05-21 03:15;80,75
2017-05-21 03:30;83,15
2017-05-21 03:45;81,9
2017-05-21 04:00;80,6
2017-05-21 04:15;81,05
2017-05-21 04:30;84,85
2017-05-21 04:45;81
2017-05-21 05:00;81,15
2017-05-21 05:15;82,35
2017-05-21 05:30;82,15
2017-05-21 05:45;81,95
2017-05-21 06:00;83,35
2017-05-21 06:15;78,75
2017-05-21 06:30;76,35
2017-05-21 06:45;74,3
2017-05-21 07:00;75,4
2017-05-21 07:15;72,7
2017-05-21 07:30;73,9
2017-05-21 07:45;70
2017-05-21 08:00;70,1
2017-05-21 08:15;70
2017-05-21 08:30;67,9
2017-05-21 08:45;70,1
2017-05-21 09:00;69
2017-05-21 09:15;66,95
2017-05-21 09:30;66,8
2017-05-21 09:45;68,9
2017-05-21 10:00;69,05
2017-05-21 10:15;74,1
2017-05-21 10:30;73
2017-05-21 10:45;74,25
2017-05-21 11:00;80,25
2017-05-21 11:15;72,6
2017-05-21 11:30;73,3
2017-05-21 11:45;73,75
2017-05-21 12:00;76,95
2017-05-21 12:15;78,25
2017-05-21 12:30;76
2017-05-21 12:45;72,55
2017-05-21 13:00;72,7
2017-05-21 13:15;72
2017-05-21 13:30;76,6
2017-05-21 13:45;75,85
2017-05-21 14:00;75,35
2017-05-21 14:15;73,55
2017-05-21 14:30;74,15
2017-05-21 14:45;77,4
2017-05-21 15:00;75,55
2017-05-21 15:15;78,35
2017-05-21 15:30;79,25
2017-05-21 15:45;79,65
2017-05-21 16:00;79,4
2017-05-21 16:15;80,25
2017-05-21 16:30;79,95
2017-05-21 16:45;83,7
2017-05-21 17:00;80,4
2017-05-21 17:15;82,6
2017-05-21 17:30;85
2017-05-21 17:45;84,25
2017-05-21 18:00;83,9
2017-05-21 18:15;79,95
2017-05-21 18:30;79,9
2017-05-21 18:45;79,85
2017-05-21 19:00;81,7
2017-05-21 19:15;77,3
2017-05-21 19:30;81,55
2017-05-21 19:45;79,4
2017-05-21 20:00;79,05
2017-05-21 20:15;81,25
2017-05-21 20:30;79,05
2017-05-21 20:45;82,1
2017-05-21 21:00;86,15
2017-05-21 21:15;85,65
2017-05-21 21:30;85,7
2017-05-21 21:45;87
2017-05-21 22:00;83,35
2017-05-21 22:15;82,1
2017-05-21 22:30;83,4
2017-05-21 22:45;83,95
2017-05-21 23:00;81,75
2017-05-21 23:15;80,9
2017-05-21 23:30;79,8
2017-05-21 23:45;79,3

